User: anonymous   Login
Location: Edinburgh
(55.9500°N, 3.1600°W)
Time: 22:31:05
(UTC+01:00)
Language:

AO-73 - Orbit

View from above orbital plane
View from above orbital plane
View from above satellite
View from above satellite

Ground track
Ground track

The orbit data is extracted from the following two-line orbital elements,

1 39444U 13066AE  24147.88578711  .00005730  00000-0  56080-3 0  9990
2 39444  97.7184 107.4101 0047387 209.7665 150.0857 14.91845688567525
Epoch (UTC): 26 May 2024 21:15:32
Eccentricity: 0.0047387
inclination: 97.7184°
perigee height: 559 km
apogee height: 625 km
right ascension of ascending node: 107.4101°
argument of perigee: 209.7665°
revolutions per day: 14.91845688
mean anomaly at epoch: 150.0857°
orbit number at epoch: 56752

The dashed part of the orbit path shows where the satellite is in the earth's shadow,  

DLR